Weather History for Thomson, GA

Change the Weather History Date:

Monday, January 21, 2013

  Actual Average (KDBN) Record (KDBN)
Temperature  
Mean Temperature 45 °F -  
Max Temperature 61 °F 55 °F 83 °F (1937)
Min Temperature 29 °F 34 °F 0 °F (1985)
Degree Days  
Heating Degree Days 20    
Moisture  
Dew Point 33 °F    
Average Humidity 67    
Maximum Humidity 100    
Minimum Humidity 35    
Precipitation  
Precipitation 0.00 in - - ()
Sea Level Pressure  
Sea Level Pressure 30.12 in    
Wind  
Wind Speed 4 mph (WNW)    
Max Wind Speed 15 mph    
Max Gust Speed 21 mph    
Visibility 10 miles    
Events      
Averages and records for this station are not official NWS values.
T = Trace of Precipitation, MM = Missing Value Source: NWS Daily Summary

Daily Weather History Graph

Daily Weather History Graph

Search for Another Location

Airport:

Trip Planner

Search our weather history database for the weather conditions in past years. The results will help you decide how hot, cold, wet, or windy it might be!

Date:

Astronomy

Jan. 21, 2013 Rise Set
Actual Time 7:32 AM EST 5:51 PM EST
Civil Twilight 7:05 AM EST 6:17 PM EST
Nautical Twilight 6:35 AM EST 6:47 PM EST
Astronomical Twilight 6:05 AM EST 7:17 PM EST
Moon 1:31 PM EST (1/21) 2:58 AM EST (1/21)
Length of Visible Light 11h 12m
Length of Day
10h 18m
Waxing Gibbous, 75% of the Moon is Illuminated
Jan 21
Waxing Gibbous
Jan 26
Full
Feb 3
Last Quarter
Feb 10
New
Feb 17
First Quarter

Hourly Weather History & Observations

Time (EST) Temp. Windchill Dew Point Humidity Pressure Visibility Wind Dir Wind Speed Gust Speed Precip Events Conditions
12:15 AM 36.5 °F - 36.5 °F 100% 30.14 in 10.0 mi Calm Calm - N/A   Clear
12:35 AM 36.7 °F - 36.5 °F 99% 30.14 in 10.0 mi Calm Calm - N/A   Clear
12:55 AM 35.8 °F 33.0 °F 35.8 °F 100% 30.13 in 10.0 mi West 3.5 mph - N/A   Clear
1:15 AM 35.6 °F - 35.6 °F 100% 30.13 in 10.0 mi Calm Calm - N/A   Clear
1:35 AM 33.1 °F 30.0 °F 32.9 °F 99% 30.13 in 10.0 mi NW 3.5 mph - N/A   Clear
1:55 AM 34.3 °F 30.2 °F 34.3 °F 100% 30.13 in 10.0 mi WNW 4.6 mph - N/A   Clear
2:15 AM 33.8 °F 30.8 °F 33.8 °F 100% 30.13 in 10.0 mi WNW 3.5 mph - N/A   Clear
2:35 AM 33.3 °F - 33.3 °F 100% 30.13 in 10.0 mi Calm Calm - N/A   Clear
2:55 AM 33.3 °F - 33.3 °F 100% 30.13 in 10.0 mi Calm Calm - N/A   Clear
3:15 AM 31.3 °F - 31.3 °F 100% 30.13 in 10.0 mi Calm Calm - N/A   Clear
3:35 AM 32.0 °F - 32.0 °F 100% 30.13 in 10.0 mi Calm Calm - N/A   Clear
3:55 AM 32.0 °F - 32.0 °F 100% 30.13 in 10.0 mi Calm Calm - N/A   Clear
4:15 AM 32.0 °F - 32.0 °F 100% 30.12 in 10.0 mi Calm Calm - N/A   Clear
4:35 AM 30.9 °F - 30.9 °F 100% 30.12 in 10.0 mi Calm Calm - N/A   Clear
4:55 AM 31.1 °F - 31.1 °F 100% 30.11 in 10.0 mi Calm Calm - N/A   Clear
5:15 AM 30.9 °F - 30.9 °F 100% 30.11 in 10.0 mi Calm Calm - N/A   Clear
5:35 AM 30.6 °F - 30.6 °F 100% 30.11 in 10.0 mi Calm Calm - N/A   Clear
5:55 AM 30.6 °F - 30.6 °F 100% 30.11 in 10.0 mi Calm Calm - N/A   Clear
6:15 AM 30.2 °F - 30.2 °F 100% 30.11 in 10.0 mi Calm Calm - N/A   Clear
6:35 AM 30.0 °F - 30.0 °F 100% 30.11 in 10.0 mi Calm Calm - N/A   Clear
6:55 AM 30.6 °F - 30.6 °F 100% 30.11 in 10.0 mi Calm Calm - N/A   Clear
7:15 AM 29.1 °F - 29.1 °F 100% 30.12 in 10.0 mi Calm Calm - N/A   Clear
7:35 AM 29.8 °F - 29.8 °F 100% 30.13 in 10.0 mi Calm Calm - N/A   Clear
7:55 AM 30.4 °F - 30.4 °F 100% 30.13 in 10.0 mi Calm Calm - N/A   Clear
8:15 AM 32.0 °F - 32.0 °F 100% 30.13 in 10.0 mi Calm Calm - N/A   Clear
8:35 AM 34.9 °F - 34.9 °F 100% 30.14 in 10.0 mi Calm Calm - N/A   Clear
8:55 AM 41.2 °F - 38.8 °F 91% 30.15 in 10.0 mi Calm Calm - N/A   Clear
9:15 AM 43.7 °F - 38.7 °F 82% 30.15 in 10.0 mi Calm Calm - N/A   Clear
9:35 AM 47.1 °F - 39.7 °F 76% 30.15 in 10.0 mi West 3.5 mph - N/A   Clear
9:55 AM 50.2 °F - 39.9 °F 68% 30.15 in 10.0 mi West 5.8 mph - N/A   Clear
10:15 AM 52.5 °F - 39.2 °F 61% 30.15 in 10.0 mi West 6.9 mph - N/A   Clear
10:35 AM 54.5 °F - 35.4 °F 49% 30.15 in 10.0 mi WNW 9.2 mph - N/A   Clear
10:55 AM 56.3 °F - 32.5 °F 41% 30.14 in 10.0 mi WNW 11.5 mph - N/A   Clear
11:15 AM 58.3 °F - 33.3 °F 39% 30.13 in 10.0 mi WNW 10.4 mph - N/A   Clear
11:35 AM 58.5 °F - 33.6 °F 39% 30.13 in 10.0 mi NW 10.4 mph - N/A   Clear
11:55 AM 59.9 °F - 33.3 °F 37% 30.12 in 10.0 mi WNW 13.8 mph - N/A   Clear
12:15 PM 60.3 °F - 33.1 °F 36% 30.11 in 10.0 mi WNW 11.5 mph 18.4 mph N/A   Clear
12:35 PM 61.2 °F - 34.2 °F 36% 30.10 in 10.0 mi WNW 10.4 mph - N/A   Clear
12:55 PM 61.3 °F - 33.4 °F 35% 30.09 in 10.0 mi WNW 10.4 mph - N/A   Clear
1:15 PM 60.8 °F - 33.8 °F 36% 30.08 in 10.0 mi WNW 11.5 mph 17.3 mph N/A   Clear
1:35 PM 61.5 °F - 35.1 °F 37% 30.08 in 10.0 mi West 10.4 mph - N/A   Clear
1:55 PM 60.8 °F - 36.0 °F 40% 30.08 in 10.0 mi WNW 15.0 mph - N/A   Clear
2:15 PM 60.6 °F - 36.9 °F 41% 30.07 in 10.0 mi West 11.5 mph - N/A   Clear
2:35 PM 61.0 °F - 37.6 °F 42% 30.07 in 10.0 mi West 8.1 mph - N/A   Clear
2:55 PM 61.3 °F - 37.2 °F 41% 30.06 in 10.0 mi West 12.7 mph 18.4 mph N/A   Clear
3:15 PM 61.5 °F - 37.0 °F 40% 30.06 in 10.0 mi West 8.1 mph 17.3 mph N/A   Clear
3:35 PM 61.7 °F - 37.2 °F 40% 30.07 in 10.0 mi West 13.8 mph 19.6 mph N/A   Clear
3:55 PM 61.5 °F - 37.0 °F 40% 30.07 in 10.0 mi West 11.5 mph 19.6 mph N/A   Clear
4:15 PM 60.8 °F - 36.5 °F 40% 30.07 in 10.0 mi West 9.2 mph 20.7 mph N/A   Clear
4:35 PM 60.3 °F - 36.7 °F 41% 30.07 in 10.0 mi WSW 10.4 mph 16.1 mph N/A   Clear
4:55 PM 59.5 °F - 36.5 °F 42% 30.08 in 10.0 mi West 12.7 mph 17.3 mph N/A   Clear
5:15 PM 58.1 °F - 35.8 °F 43% 30.08 in 10.0 mi West 8.1 mph - N/A   Clear
5:35 PM 56.8 °F - 36.0 °F 46% 30.09 in 10.0 mi West 6.9 mph - N/A   Clear
6:15 PM 54.9 °F - 35.1 °F 47% 30.11 in 10.0 mi West 9.2 mph - N/A   Clear
6:35 PM 53.8 °F - 34.9 °F 49% 30.11 in 10.0 mi West 5.8 mph - N/A   Clear
6:55 PM 51.6 °F - 35.6 °F 54% 30.12 in 10.0 mi West 8.1 mph - N/A   Clear
7:15 PM 51.3 °F - 35.4 °F 55% 30.12 in 10.0 mi West 6.9 mph - N/A   Clear
7:55 PM 50.9 °F - 33.3 °F 51% 30.13 in 10.0 mi West 13.8 mph 18.4 mph N/A   Clear
8:15 PM 50.4 °F - 31.5 °F 48% 30.13 in 10.0 mi West 13.8 mph 18.4 mph N/A   Clear
8:35 PM 49.8 °F - 30.2 °F 47% 30.14 in 10.0 mi WNW 11.5 mph 16.1 mph N/A   Clear
8:55 PM 49.1 °F - 29.3 °F 46% 30.14 in 10.0 mi WNW 10.4 mph 18.4 mph N/A   Clear
9:15 PM 48.2 °F - 29.1 °F 48% 30.15 in 10.0 mi WNW 8.1 mph - N/A   Clear
9:35 PM 47.7 °F - 28.6 °F 48% 30.15 in 10.0 mi WNW 9.2 mph - N/A   Clear
9:55 PM 46.9 °F - 28.6 °F 49% 30.15 in 10.0 mi West 8.1 mph - N/A   Clear
10:35 PM 45.9 °F 40.8 °F 27.5 °F 49% 30.16 in 10.0 mi West 10.4 mph - N/A   Clear
10:55 PM 45.1 °F 40.3 °F 27.5 °F 50% 30.16 in 10.0 mi West 9.2 mph - N/A   Clear
11:15 PM 44.4 °F 40.5 °F 27.1 °F 51% 30.17 in 10.0 mi West 6.9 mph - N/A   Clear
11:35 PM 44.1 °F 38.6 °F 26.4 °F 50% 30.17 in 10.0 mi WNW 10.4 mph - N/A   Clear
11:55 PM 43.3 °F 39.9 °F 26.2 °F 51% 30.16 in 10.0 mi West 5.8 mph - N/A   Clear